DELTA 1 DEB, 29187

Orbit data source: Space-Track

DELTA 1 DEB, 29187 is space debris in LEO originally from a launch on Thu, 11 Jan 1968 UTC launched from the Air Force Western Test Range (AFWTR). Debris objects in space refer to the collection of defunct objects orbiting the Earth. Examples of debris include non-operational satellites, rocket bodies, and fragments generated from explosions, collisions, or faulty payload assembly.

Loading next visibility...
Identifier
29187, 1968-002L
Orbit
LEO
Country
Flag of USUS
Related business
Manufacturer
Unknown
Mission
Spacecraft
Bus & Motor
Unknown
Mass
Unknown
Launch date (UTC)
1968-01-11 (58 years ago)
Launch vehicle
Unknown
Launch site
Air Force Western Test Range (AFWTR)
Object type
Payload
Rocket body
Debris
Shape & HBR
Unknown shape, 0.1 m
Radar Cross Section
Small (<0.1 m²)

Expand to show TLE details & history
Last TLE update: 2 weeks ago

TLE from 2 weeks ago
0 DELTA 1 DEB
1 29187U 68002L   26056.08956112  .00000150  00000-0  70165-3 0  9992
2 29187 105.7930 139.4737 0292963  49.3601  68.1010 12.91235474587646
Epoch: 2026-02-25T02:08Z
TLE epoch observation values (Epoch: 2026-02-25T02:08:58.080Z)
Latitude
56.00629°
Longitude
156.93652°
Altitude
1,227.468 km
Speed
7.283 km/s
True Right ascension
22h 56m 33s
True Declination
55° 51' 24"
Sunlit
Object was in daylight at epoch
Visualization orbit readout
Latitude
Unknown
Longitude
Unknown
Altitude
Unknown
Speed
Unknown
Apparent Right ascension
Unknown
Apparent Declination
Unknown
Sunlit
N/A
Visualization observer readout
Local Sidereal Time
08:34:04
Azimuth
Unknown
Elevation
Unknown
Doppler factor
Unknown
Orbital elements
Apogee altitude
1,519.172 km
Perigee altitude
1,069.618 km
Semi-major axis
7,672.532 km
Eccentricity
0.0293
Inclination
105.793°
RAAN
139.4737°
Arg. of periapsis
49.3601°
True anomaly
71.25738°
Mean anomaly
68.101°
Eccentric anomaly
69.67504°
Mean motion
3.2295 °/min
Orbital period
111.47 mins
BSTAR
0.00070165
Loading maneuver chart data...
Computing Atmospheric mass density...
Loading historical data...
Loading historical data...
Loading historical data...
Loading historical data...
Loading historical data...
Loading historical data...
Loading historical data...

Documentation

Showing up to 5 results
|